This is the latest recevied weather packets stored in our database for station/object SP9KB-13. If no packets are shown the sender has not sent any weather packets the latest 10 day(s).
| Time | Temp. | Humidity | Pressure | Rain* | Wind** | Luminosity | Snow |
|---|---|---|---|---|---|---|---|
| 1777991804 | 24.44° C | 26% | 991.6 hPa | 0 mm | - | - | - |
| 1777991504 | 25.56° C | 25% | 991.6 hPa | 0 mm | - | - | - |
| 1777991203 | 25.56° C | 25% | 991.6 hPa | 0 mm | - | - | - |
| 1777990903 | 25.56° C | 25% | 991.9 hPa | 0 mm | - | - | - |
| 1777990602 | 25.56° C | 25% | 991.8 hPa | 0 mm | - | - | - |
| 1777990302 | 25.56° C | 24% | 992 hPa | 0 mm | - | - | - |
| 1777990001 | 25.56° C | 23% | 992.1 hPa | 0 mm | - | - | - |
| 1777989400 | 26.11° C | 23% | 992.1 hPa | 0 mm | - | - | - |
| 1777988197 | 26.11° C | 24% | 992.3 hPa | 0 mm | - | - | - |
| 1777987897 | 25° C | 24% | 992.2 hPa | 0 mm | - | - | - |
| 1777987596 | 25° C | 25% | 992.2 hPa | 0 mm | - | - | - |
| 1777987295 | 25° C | 24% | 992.3 hPa | 0 mm | - | - | - |
| 1777986994 | 25.56° C | 24% | 992.2 hPa | 0 mm | - | - | - |
| 1777986694 | 25.56° C | 25% | 992 hPa | 0 mm | - | - | - |
| 1777986394 | 26.11° C | 24% | 992.2 hPa | 0 mm | - | - | - |
| 1777985492 | 27.22° C | 24% | 992.2 hPa | 0 mm | - | - | - |
| 1777984590 | 25° C | 26% | 992.4 hPa | 0 mm | - | - | - |
| 1777984289 | 25.56° C | 26% | 992.4 hPa | 0 mm | - | - | - |
| 1777983989 | 25.56° C | 26% | 992.6 hPa | 0 mm | - | - | - |
| 1777983688 | 26.11° C | 25% | 992.7 hPa | 0 mm | - | - | - |
| 1777983388 | 26.11° C | 28% | 992.6 hPa | 0 mm | - | - | - |
| 1777982486 | 25° C | 30% | 992.7 hPa | 0 mm | - | - | - |
| 1777981584 | 25° C | 32% | 992.7 hPa | 0 mm | - | - | - |
| 1777980983 | 24.44° C | 32% | 992.9 hPa | 0 mm | - | - | - |
| 1777980682 | 24.44° C | 32% | 993 hPa | 0 mm | - | - | - |
* Rain latest hour (hover to see other rain measurements)
** Current wind speed in m/s (hover to see current wind gust speed)